Theta_e
342 343 345 346 347 349 350 351 352 353 355 356 356 356 356 356 357 357 357 358 357 355 355 354 353 353 355 352 351 353 355 355 354 357 358 359 361 360 362 359 362 363 363 363 363 363 363 360 361 360 357 356 355 353 353 351 359 357 357 360 350 351 349 348 348 348 346 344 346 347 350 352 352 354 351 354 355 359 360 361 361 364 365 368 368
342 343 344 346 346 348 349 350 353 351 354 355 356 356 357 357 357 358 357 358 356 355 354 354 355 354 352 351 350 351 353 353 354 355 355 356 363 364 363 361 362 363 363 365 364 362 362 357 359 357 356 356 356 358 358 360 364 360 352 353 351 347 348 347 350 347 340 339 340 341 345 349 351 350 350 352 355 356 359 362 363 362 362 366 366
340 341 344 344 346 347 348 350 351 352 353 354 357 356 358 357 359 360 357 357 356 357 357 356 357 358 355 353 352 351 354 355 354 354 356 355 360 363 363 362 363 362 363 364 363 361 360 359 357 358 360 358 358 359 359 361 359 354 357 349 346 349 347 347 350 350 342 344 344 338 336 338 350 348 351 350 350 354 356 358 360 362 361 364 367
338 340 340 343 345 347 348 349 350 350 352 353 354 356 357 359 361 362 360 359 359 359 360 359 360 361 361 359 357 356 355 355 355 356 356 355 355 358 361 364 363 361 360 359 358 359 361 360 357 357 362 362 358 357 355 354 358 355 351 352 354 346 342 345 352 353 348 343 337 339 338 334 331 343 346 350 351 351 354 356 358 361 362 364 368
339 339 341 341 343 344 347 349 350 350 350 352 353 354 355 357 362 363 362 360 360 361 360 362 361 359 360 361 360 358 358 355 353 352 355 357 354 355 356 362 362 360 362 362 361 361 364 363 359 359 359 360 357 355 355 349 348 350 352 355 355 347 341 346 349 349 349 350 342 337 339 337 340 338 338 345 348 348 353 353 356 356 360 361 362
340 339 340 341 342 344 346 348 349 349 349 351 353 355 356 357 362 365 363 362 360 362 363 362 360 356 355 354 353 352 351 350 348 348 349 353 351 354 355 357 359 360 360 362 360 363 365 365 365 361 360 359 357 353 352 348 349 350 352 353 347 351 350 347 344 350 347 352 348 344 344 334 334 340 336 334 353 348 349 350 357 357 359 359 361
341 341 341 340 342 343 345 347 348 347 349 351 353 355 357 358 362 365 365 364 362 364 365 362 359 358 356 354 353 352 349 350 352 351 351 352 353 352 352 355 358 357 358 361 362 364 366 366 367 364 359 358 360 358 355 352 347 346 348 349 351 353 356 351 347 342 349 350 347 347 347 347 345 339 338 338 338 347 351 349 354 355 357 358 358
340 341 342 342 343 343 344 346 347 346 348 350 352 353 358 360 362 365 366 365 364 365 363 363 360 358 358 357 355 352 350 351 354 354 354 356 353 353 352 353 356 357 357 360 362 363 364 364 366 365 360 359 356 355 353 352 349 350 354 358 359 359 359 352 348 343 341 345 346 347 349 349 348 345 347 341 337 337 342 350 353 354 355 357 360
340 340 340 341 342 343 344 346 347 347 348 349 351 353 356 360 363 366 366 367 365 367 364 363 362 361 360 358 355 355 354 354 357 357 355 357 354 354 355 352 353 356 356 358 361 360 362 360 362 362 361 361 361 357 355 353 352 355 359 359 360 359 357 354 353 350 346 342 348 352 348 347 347 349 347 346 340 337 335 336 343 353 353 356 358
340 341 342 342 343 344 344 346 346 346 348 350 351 353 355 360 363 365 366 366 366 368 366 365 364 363 362 360 357 356 356 357 359 356 355 357 355 355 355 354 352 353 355 358 359 359 359 361 358 358 359 358 358 357 358 357 356 360 361 359 359 358 359 355 354 351 350 349 350 351 352 350 348 344 345 344 344 347 338 337 339 340 341 352 358
340 341 342 343 344 344 345 344 347 347 348 349 351 353 355 358 363 365 367 366 367 367 366 364 364 362 361 363 359 358 358 356 357 357 356 356 354 353 355 355 354 353 352 354 354 356 356 358 356 355 357 360 359 358 357 355 356 357 359 360 360 359 356 357 356 357 355 355 351 349 349 346 347 346 348 344 343 341 339 339 340 342 340 339 356
340 340 340 342 344 345 345 345 346 347 348 349 351 353 356 357 362 365 367 368 367 366 366 363 361 361 362 364 362 360 360 356 357 356 355 355 353 351 355 354 354 353 354 352 351 351 353 353 357 356 357 358 359 359 358 358 358 359 359 361 361 362 361 360 359 357 356 356 355 350 351 350 348 348 347 347 347 346 344 342 338 340 342 344 355
341 342 341 341 342 343 344 345 347 349 349 351 351 352 355 358 361 363 366 368 367 366 365 364 362 362 361 361 363 362 360 359 358 356 356 355 353 352 355 354 355 353 353 351 350 351 352 354 356 354 356 360 363 363 360 364 363 359 361 361 360 362 360 360 356 355 355 353 352 353 351 350 348 350 349 346 346 348 346 342 341 343 340 340 351
341 341 341 342 343 343 345 346 347 349 350 351 352 353 356 357 362 364 366 367 367 366 365 364 363 363 364 361 362 363 361 360 358 357 356 357 355 354 353 353 354 353 351 352 350 350 350 353 357 357 361 364 365 366 365 366 367 362 363 363 360 363 363 363 361 359 358 358 355 350 350 349 349 351 352 349 347 346 345 344 345 345 346 341 347
342 343 342 342 343 345 345 346 348 350 350 351 352 354 357 357 360 364 365 366 366 365 365 364 363 364 364 363 363 363 360 359 360 358 358 357 355 354 356 353 352 354 352 354 353 351 351 353 354 357 360 365 366 366 361 366 368 366 365 365 364 362 365 363 360 358 354 355 356 353 351 349 348 350 351 351 350 347 346 346 346 344 343 343 343
342 343 343 343 345 347 347 348 348 350 352 352 352 355 356 358 362 364 366 366 366 366 364 364 365 364 365 365 364 363 363 362 362 362 360 358 357 355 356 357 355 354 356 354 350 351 351 352 354 355 358 359 362 365 364 363 368 364 363 364 363 360 363 364 361 358 356 356 355 356 355 352 352 351 350 351 351 352 351 351 350 348 343 340 341
342 342 343 345 345 347 347 349 348 349 352 352 354 356 359 359 360 364 366 367 367 366 364 366 365 364 365 364 363 362 360 359 357 360 358 359 359 356 354 354 356 357 353 355 351 352 352 353 354 353 354 356 359 359 358 361 367 366 362 364 363 361 360 362 361 359 359 355 352 354 354 353 353 355 353 351 353 354 352 350 349 347 348 346 344
344 344 347 347 347 348 347 347 348 350 352 353 355 356 360 360 360 362 363 363 365 365 363 363 363 362 363 363 363 361 358 358 358 357 358 359 359 358 357 354 354 355 354 352 352 350 351 353 353 354 355 355 356 355 356 357 364 363 361 362 361 360 359 362 362 357 356 356 354 351 352 351 353 353 351 352 353 355 354 351 351 351 353 348 347
344 344 346 347 348 348 349 348 347 351 352 353 355 357 360 360 361 363 364 365 364 363 362 361 361 359 358 359 359 360 358 359 359 360 359 357 356 356 356 355 354 356 356 358 356 351 351 351 355 354 355 356 358 356 357 357 359 360 358 354 359 360 358 359 362 359 355 353 354 351 351 349 350 350 351 350 352 353 353 353 353 354 354 355 353
344 344 344 346 348 349 350 351 349 350 351 352 356 358 359 361 362 366 365 363 363 361 362 362 362 359 357 357 358 360 363 359 360 361 357 356 357 356 355 353 354 355 356 355 356 354 352 351 351 351 351 354 355 355 356 357 357 358 356 352 354 357 359 359 356 354 356 357 355 352 352 351 351 351 351 349 349 352 354 352 354 355 356 357 355
346 344 346 346 347 347 348 351 352 353 354 356 357 358 358 361 361 363 363 361 359 361 361 363 364 361 357 356 354 356 358 360 358 359 358 355 355 356 354 357 361 358 360 356 354 357 356 352 352 354 352 354 356 357 357 358 358 358 356 357 357 357 358 360 360 357 357 356 357 355 355 354 355 352 350 349 348 348 350 353 355 354 353 357 355
347 346 346 346 348 348 347 350 352 353 354 355 356 359 359 360 360 362 363 361 359 360 361 364 364 360 357 355 355 354 358 358 357 357 358 357 356 358 359 363 361 361 358 356 356 356 356 356 354 353 354 354 355 359 358 356 355 356 357 353 353 357 359 361 361 360 361 359 356 357 358 356 356 354 352 349 348 346 346 347 351 351 353 353 354
346 347 347 348 349 349 349 352 354 354 355 356 358 359 359 362 362 361 362 361 361 362 364 365 362 361 358 354 355 355 357 356 356 356 354 358 352 358 364 359 361 362 359 357 356 356 358 356 356 354 354 354 356 357 358 357 355 356 356 355 355 354 356 356 357 359 359 361 360 359 357 359 356 354 353 353 350 347 346 346 348 349 351 351 351
348 350 350 351 350 351 353 353 355 354 356 357 358 360 359 361 362 362 361 361 362 364 364 363 361 357 356 354 355 355 355 357 356 356 356 360 357 357 360 360 359 360 356 357 356 355 355 357 358 356 355 356 355 355 356 357 356 356 355 357 357 356 356 358 358 358 359 360 362 360 359 358 359 357 355 355 354 351 349 349 348 350 351 351 352
349 350 351 352 351 351 354 354 355 355 357 358 359 360 360 362 362 361 361 363 363 363 363 363 362 359 356 355 354 356 356 357 357 356 356 356 355 357 359 359 359 358 358 356 355 356 356 357 354 355 356 356 355 355 356 355 355 356 357 355 356 357 357 357 357 359 359 360 359 359 358 359 358 355 357 355 354 353 351 350 348 350 350 351 353
354 353 353 351 353 354 355 354 355 356 358 358 361 361 361 363 362 363 361 363 362 362 363 362 361 359 357 356 355 356 355 355 358 363 358 355 355 356 355 357 360 360 359 357 355 355 354 355 355 355 356 356 357 356 356 357 356 356 356 356 356 356 355 356 356 355 356 358 357 358 357 357 358 356 357 357 358 357 354 352 352 352 352 353 355
353 355 356 356 355 354 355 356 357 357 358 360 361 361 362 363 363 363 363 364 363 362 362 361 360 358 356 355 356 356 356 358 360 361 360 358 357 357 356 356 358 359 358 357 356 356 356 354 354 353 355 356 356 356 357 358 357 356 356 356 355 354 355 354 355 354 355 357 359 357 358 360 361 361 359 358 358 359 358 357 356 356 356 357 355
354 354 353 354 354 355 355 355 356 357 359 360 360 361 361 362 362 363 363 361 360 361 361 359 356 355 356 356 356 357 359 359 358 358 359 358 358 356 356 359 359 358 356 356 355 356 356 358 355 354 356 357 357 357 359 358 357 356 354 354 355 355 354 354 356 355 355 357 358 359 361 362 362 363 363 363 362 359 360 358 357 353 356 357 358
352 354 354 353 354 354 354 355 356 357 357 358 359 360 361 362 362 360 360 358 359 359 358 357 355 355 356 356 359 358 360 361 361 360 358 357 355 355 356 357 358 358 357 357 356 355 355 354 355 355 355 354 355 355 357 357 357 356 356 354 354 354 353 354 355 356 357 357 358 358 359 360 362 364 365 365 365 365 362 359 361 362 361 359 358
348 351 353 354 354 355 356 357 357 356 357 357 357 358 359 358 357 355 357 359 360 358 356 356 356 355 357 360 358 357 359 360 358 356 357 358 357 356 356 357 358 359 358 358 358 357 356 354 354 355 355 354 356 356 358 358 357 356 356 353 353 354 356 356 355 355 355 357 358 359 359 359 363 365 364 361 358 356 355 358 359 361 363 362 360
352 352 352 353 354 356 356 357 357 357 358 357 356 355 355 356 356 357 358 360 359 357 356 355 357 357 357 358 357 357 358 356 356 356 358 357 356 356 357 357 358 358 357 358 357 356 355 356 355 353 353 352 350 351 354 346 347 353 357 355 354 354 356 355 356 353 356 357 356 355 359 359 362 361 362 356 356 355 354 352 351 351 355 359 357
351 352 353 353 354 355 356 357 358 358 357 356 355 356 355 356 357 357 357 358 357 357 356 356 354 357 359 358 357 357 361 361 361 359 358 358 357 357 357 357 357 356 356 357 356 356 355 355 355 354 354 352 353 358 339 342 344 344 350 354 352 352 353 355 357 357 355 355 356 354 359 361 360 360 362 362 358 355 351 351 351 350 349 348 349
350 351 352 352 354 356 357 357 358 358 356 355 357 355 355 355 355 356 357 356 355 355 356 357 357 359 359 360 361 360 359 357 355 352 353 358 355 355 356 356 355 354 355 355 356 356 354 353 353 353 352 353 354 353 344 341 341 340 341 350 352 354 355 355 356 359 361 360 357 356 354 357 358 356 358 359 359 359 359 354 350 350 350 349 343
347 350 353 354 355 355 357 358 358 358 358 358 357 356 356 357 357 358 357 356 356 355 357 357 358 359 359 356 352 348 349 347 349 351 354 355 354 356 357 357 356 356 354 354 354 355 354 354 354 354 354 354 355 355 341 339 337 337 337 345 354 356 356 357 359 359 358 358 358 355 355 355 357 358 358 358 358 358 357 356 359 362 361 359 352
347 350 352 355 356 356 357 357 358 357 356 356 356 357 357 357 357 357 357 356 356 357 358 359 358 358 358 356 351 347 347 346 346 348 351 354 355 355 356 357 357 356 355 355 355 354 354 355 354 354 354 353 353 345 337 335 333 332 333 342 354 354 355 357 358 358 357 356 358 357 356 355 356 355 356 359 357 357 358 357 356 355 358 359 360
348 350 353 354 354 355 356 357 359 358 356 356 355 356 355 354 357 355 355 356 357 358 357 357 356 354 355 356 351 350 349 350 349 350 352 353 353 354 355 356 355 356 356 356 356 355 355 355 355 356 356 356 357 339 334 334 331 330 334 349 353 353 353 355 356 357 357 359 359 357 352 357 353 356 354 354 355 358 357 355 353 353 355 357 357
348 350 351 353 355 356 358 358 358 359 357 355 355 355 355 354 355 355 355 355 356 353 352 355 351 352 352 355 354 352 352 353 353 353 353 353 353 355 356 356 354 355 355 355 356 355 356 356 356 356 356 355 356 341 330 331 329 329 337 351 354 354 354 355 356 358 358 358 359 359 359 356 356 357 343 328 336 350 353 352 352 352 353 355 354
348 351 352 353 354 355 356 355 357 358 358 357 358 356 355 354 354 354 354 354 354 350 352 352 353 354 353 354 356 356 355 354 354 353 353 354 356 356 356 356 354 354 354 354 354 354 356 356 355 355 355 355 355 345 326 326 326 327 340 352 354 353 354 356 357 356 356 357 359 354 355 356 354 357 326 324 327 345 350 351 352 353 352 353 353
350 350 351 351 353 354 354 357 357 357 358 358 357 356 354 354 354 354 355 354 354 356 356 356 356 357 357 357 356 356 356 355 354 353 354 354 354 354 355 356 355 355 354 355 353 353 353 354 354 355 351 352 353 348 324 325 322 322 336 350 350 351 351 352 353 353 355 355 355 354 353 349 345 332 317 319 321 336 346 348 350 349 348 350 352
347 350 353 356 358 356 355 355 357 359 360 358 358 356 356 355 354 355 355 356 356 355 356 356 356 357 356 355 355 355 355 354 354 353 354 354 354 354 353 353 353 352 352 352 352 354 354 353 354 353 353 354 354 356 348 320 322 321 324 345 350 350 349 350 351 350 350 352 352 353 346 327 322 319 317 315 316 316 333 341 342 343 343 346 351
349 352 355 354 354 354 355 356 357 358 358 358 356 356 355 356 355 355 354 356 357 356 355 354 355 354 353 353 355 355 355 356 356 354 354 354 354 354 353 353 351 352 351 351 351 351 351 350 351 350 350 350 351 352 352 320 320 321 322 331 348 349 350 349 348 347 347 346 347 349 349 330 320 318 315 311 310 312 318 331 338 339 342 337 333
354 354 352 352 353 356 357 355 357 358 357 358 357 356 356 355 353 352 355 358 358 356 356 355 355 355 354 355 355 355 355 354 355 354 353 352 353 354 353 352 351 350 350 348 348 346 347 347 350 350 352 351 349 346 351 328 321 318 319 323 343 350 348 349 346 346 345 344 345 346 345 332 318 317 313 309 307 309 314 327 335 322 316 319 334
351 352 353 353 354 354 354 356 355 355 355 355 357 355 354 354 353 356 357 358 358 357 358 356 355 354 354 354 354 354 354 353 352 353 352 351 352 351 351 350 348 348 347 347 347 349 349 348 347 349 350 350 350 349 346 348 321 315 315 320 321 334 327 345 344 342 342 341 342 344 340 330 316 309 306 307 308 309 317 329 312 312 315 316 324
349 350 349 351 353 356 357 358 356 357 358 358 358 356 356 354 355 358 358 358 357 356 357 355 355 353 353 352 353 351 350 351 351 351 351 349 348 349 350 350 350 349 347 347 346 347 347 345 345 345 348 347 347 348 342 337 331 316 314 313 316 317 320 336 341 341 342 341 339 340 333 313 308 304 304 307 310 315 325 314 312 315 317 322 332
347 347 351 352 354 356 356 356 357 358 359 360 359 357 355 355 357 359 359 358 356 354 353 353 352 351 351 349 349 349 348 349 349 348 348 347 348 349 347 349 349 347 346 345 344 344 344 344 344 345 346 346 347 348 346 336 329 326 319 317 318 318 319 317 336 339 340 340 325 313 310 310 310 309 309 311 315 321 317 315 317 319 328 334 337
350 352 354 358 358 358 357 355 357 359 358 360 357 355 355 356 358 360 359 357 356 355 354 353 352 351 348 348 347 346 347 349 349 348 348 347 347 346 345 346 344 344 344 344 342 341 341 343 343 344 343 344 345 346 345 343 338 336 331 320 319 322 331 331 333 333 331 325 319 315 312 313 316 320 331 335 334 333 327 327 327 331 335 335 334
350 357 357 355 352 350 350 352 352 354 355 355 356 353 356 357 358 355 356 358 357 355 354 352 351 349 349 349 348 345 345 345 347 346 345 346 347 347 346 346 346 343 343 342 343 343 341 339 340 342 343 344 345 344 343 346 344 340 341 339 339 338 333 332 334 338 334 334 333 329 330 323 321 322 324 327 327 330 333 334 333 333 333 332 332
356 356 353 351 349 348 348 350 352 353 353 352 353 352 353 353 351 351 354 355 354 353 350 349 346 347 348 347 347 343 345 344 345 346 343 343 344 345 344 346 345 345 344 343 343 342 340 340 338 340 341 341 341 342 342 342 339 339 338 338 339 337 338 336 334 335 334 334 334 332 330 333 335 335 333 334 333 333 332 332 333 332 331 331 330
353 354 352 351 350 350 353 352 352 354 355 355 354 352 352 353 353 355 356 353 351 351 350 346 346 346 347 348 345 346 344 344 345 348 345 346 345 344 344 346 346 344 342 340 341 340 340 341 340 339 338 339 340 340 339 315 328 311 324 330 334 335 335 334 327 316 328 332 334 333 334 334 334 331 331 333 332 333 333 334 334 334 332 331 330
354 354 354 354 354 354 354 353 354 355 354 355 356 355 355 353 355 356 356 354 353 351 350 347 347 346 346 345 344 344 346 345 344 343 345 342 323 315 326 342 342 325 312 307 310 334 332 338 339 341 342 336 336 329 307 301 299 300 299 300 302 299 300 316 317 310 321 330 333 333 335 334 335 334 333 333 333 333 334 334 335 330 332 331 329
354 354 354 354 355 356 354 354 353 354 354 354 354 354 356 356 358 357 356 357 356 352 350 349 349 349 346 346 345 345 347 349 348 344 345 345 344 329 302 304 314 323 311 301 299 302 306 313 329 338 328 312 312 304 298 296 296 296 295 295 295 296 297 298 301 320 328 331 334 333 333 334 333 333 332 332 333 333 331 331 331 332 331 329 328
Wind_Speed
12 13 14 13 13 11 11 10 10 10 10 11 11 12 11 11 11 12 11 11 10 10 9 9 9 8 7 8 8 8 7 7 7 6 6 6 6 6 7 6 6 6 5 5 5 4 3 3 4 4 5 5 5 5 5 4 3 2 2 2 2 1 2 3 2 2 4 1 1 1 2 1 3 0 3 2 2 2 3 3 3 2 2 3 2
13 13 14 14 12 13 11 10 11 12 11 11 12 12 12 12 12 11 11 11 11 10 9 9 8 8 8 8 8 8 8 7 7 7 7 6 6 5 6 6 6 5 5 5 5 5 4 4 4 5 5 5 4 3 3 2 2 3 2 2 5 2 2 3 3 4 4 3 1 0 1 2 1 0 0 3 1 2 3 3 2 1 2 3 2
13 14 14 14 15 14 12 11 11 12 12 13 12 12 12 11 11 11 10 11 11 11 9 9 8 8 8 7 8 7 7 8 7 7 6 6 7 7 6 6 6 5 5 5 5 6 5 3 5 5 5 5 5 5 5 3 3 4 3 3 3 2 4 3 1 4 6 2 1 2 3 3 4 2 1 1 1 1 1 3 1 3 2 1 2
14 15 16 15 15 14 13 12 12 12 11 12 12 13 11 11 11 11 11 11 10 11 10 9 9 8 7 5 6 6 6 7 7 6 7 7 7 8 7 6 7 6 7 7 6 5 4 4 5 4 4 4 4 4 4 5 4 3 5 4 2 5 5 4 2 1 5 4 4 2 4 3 5 2 1 3 1 0 0 1 2 2 3 2 2
15 15 15 16 15 15 14 13 12 12 12 12 13 12 10 13 12 12 11 11 10 11 11 9 8 8 7 6 5 6 3 5 6 6 7 7 7 8 9 8 8 7 6 6 5 5 4 4 3 4 4 5 5 5 5 6 7 6 3 2 3 5 5 4 2 4 3 1 5 4 4 4 2 5 6 1 2 1 2 1 2 2 2 2 1
15 16 15 15 15 15 15 14 14 13 13 12 12 12 12 11 13 13 10 10 11 12 12 9 8 8 9 8 8 8 8 8 9 9 9 9 9 8 9 9 8 7 6 6 6 5 5 4 4 4 5 4 4 5 5 6 4 5 5 6 6 6 6 5 6 4 4 2 3 5 4 6 5 5 5 3 3 2 2 1 1 3 2 3 3
15 15 15 16 15 15 15 15 15 14 14 12 12 12 13 12 13 13 11 10 10 11 12 10 9 9 10 10 9 9 8 8 7 8 8 8 8 8 8 9 9 8 7 7 6 5 4 4 4 4 4 5 5 4 5 6 6 7 6 4 5 4 1 5 6 7 3 3 5 4 4 5 6 5 5 5 4 1 2 2 2 2 3 3 1
15 16 16 15 15 15 16 16 15 14 14 13 13 12 14 13 13 14 11 10 10 10 13 10 10 9 10 10 8 9 9 8 8 8 7 6 7 8 7 8 8 8 7 7 6 7 6 5 5 5 5 5 5 5 6 6 6 5 2 3 4 3 4 5 6 7 5 4 5 4 4 4 4 6 5 5 6 5 3 2 1 1 2 2 5
16 15 16 16 15 16 16 15 15 15 13 13 13 13 13 13 13 13 11 11 10 12 12 12 9 9 9 9 8 7 8 7 7 7 6 6 7 7 7 8 8 8 8 7 8 8 7 6 6 6 6 6 5 6 6 6 6 5 4 4 5 5 5 6 5 6 6 7 2 3 5 6 5 3 4 5 5 6 5 5 3 3 3 2 2
16 16 16 17 17 16 16 15 15 14 13 14 13 12 12 12 13 14 12 10 10 12 12 12 11 9 9 9 10 8 7 6 6 7 7 6 7 7 7 7 8 8 9 9 8 8 8 8 7 8 8 7 6 6 6 6 5 5 5 7 7 7 5 5 6 6 6 6 5 2 3 5 5 6 5 5 5 3 6 6 5 4 4 2 3
15 16 16 16 16 17 16 16 15 14 13 13 13 12 12 13 13 14 13 10 11 12 12 13 11 10 10 10 10 10 9 8 7 7 7 7 7 8 8 8 8 7 8 9 9 9 9 9 9 9 9 8 7 6 7 7 7 7 7 7 5 5 5 6 6 5 6 4 7 5 5 7 5 5 4 5 6 7 7 6 6 4 4 3 4
16 16 16 16 16 16 15 15 15 14 13 13 13 12 12 12 13 14 13 12 11 12 13 13 12 11 10 10 11 10 10 8 8 8 8 8 8 8 7 8 8 8 8 7 8 10 9 9 10 10 9 8 7 7 7 7 7 6 6 5 5 7 6 5 6 6 7 5 7 7 6 6 6 5 6 5 4 5 5 7 7 6 5 4 3
15 14 15 15 15 14 14 14 13 13 12 14 14 13 12 12 14 15 14 13 12 12 12 12 11 11 10 10 10 9 9 9 8 8 8 8 8 8 8 7 8 8 8 8 8 9 8 9 9 9 9 8 7 6 6 6 6 5 5 5 6 6 6 6 6 7 7 7 6 6 6 6 6 6 6 6 6 4 5 7 6 6 6 5 3
14 14 14 14 14 14 14 14 14 13 15 15 14 12 11 12 14 15 15 14 12 11 11 11 11 10 9 8 8 7 8 8 8 8 8 7 7 8 9 8 8 9 9 8 8 9 9 9 9 10 9 8 8 7 6 6 6 6 5 6 7 6 6 6 6 7 7 7 7 8 7 7 7 6 6 6 6 6 6 5 6 5 5 6 3
13 13 14 14 14 15 14 14 13 14 15 14 13 12 12 12 13 13 13 13 13 13 11 11 10 10 9 9 8 7 7 7 8 7 7 7 7 8 8 7 8 8 9 8 8 8 8 8 9 10 9 9 8 8 8 7 6 6 6 6 7 5 5 6 7 8 7 7 7 7 7 7 8 6 6 6 6 7 7 6 5 6 6 6 6
13 14 14 15 14 14 13 13 13 13 13 12 13 13 13 12 14 14 14 14 13 13 12 12 11 10 11 10 10 8 6 6 6 6 6 7 7 7 7 7 7 6 7 8 8 8 8 8 9 10 9 9 10 9 9 8 8 8 7 7 7 6 6 8 7 8 8 8 8 7 7 7 7 7 7 6 6 6 6 6 6 6 6 7 6
13 13 13 15 14 14 13 13 13 12 12 13 14 14 15 14 14 14 13 11 12 12 11 11 11 10 11 11 10 9 9 9 8 8 9 8 7 6 7 7 7 7 7 7 8 8 8 9 9 9 10 9 9 10 10 9 8 8 8 8 8 8 8 7 7 7 7 8 8 9 7 7 7 6 6 7 6 5 6 7 7 7 6 6 6
12 13 13 14 14 15 14 13 13 13 14 15 16 15 14 12 11 12 12 11 10 10 10 10 11 11 10 10 10 10 9 10 9 9 8 7 7 6 7 7 7 7 7 7 7 8 8 9 9 8 8 10 10 10 11 11 10 8 9 8 8 8 8 6 7 8 8 7 8 8 7 8 7 8 8 8 7 5 7 6 7 6 5 7 6
10 11 11 11 12 13 13 13 14 14 14 15 15 13 11 12 13 13 13 11 11 9 10 9 10 7 7 8 9 9 8 8 8 8 8 7 7 7 8 7 7 8 7 7 7 8 8 10 9 10 9 9 9 10 10 10 11 10 9 10 9 8 8 8 7 7 7 8 8 8 8 8 8 8 8 8 7 7 7 7 7 6 5 6 6
9 9 10 11 12 13 13 13 13 13 14 13 13 11 13 13 13 11 14 14 12 12 11 10 9 9 8 8 7 6 7 7 7 7 8 9 8 8 7 9 9 8 10 9 8 9 9 10 10 11 11 11 11 10 10 10 10 10 10 11 9 10 9 9 9 9 7 7 8 9 9 8 8 8 8 9 9 8 8 8 7 6 6 6 6
8 9 9 10 11 12 12 11 11 11 11 11 11 13 13 13 13 14 15 14 13 12 11 10 9 9 10 9 8 8 9 7 8 8 8 9 9 8 8 1 5 3 3 6 10 10 10 11 10 10 11 10 9 9 9 9 9 10 10 10 10 9 9 9 8 9 9 9 8 9 9 9 9 9 9 9 9 9 9 9 7 8 8 7 7
7 7 8 8 9 10 11 10 9 10 10 11 11 11 13 13 12 13 12 11 12 13 12 11 10 9 9 8 7 7 8 8 8 9 9 5 6 6 6 2 4 2 2 2 4 6 9 11 12 12 11 11 10 10 10 9 10 10 11 10 11 11 10 9 8 9 8 8 8 9 9 10 10 10 10 11 10 10 10 10 9 9 8 8 7
7 7 7 6 7 8 8 10 10 10 10 11 11 11 11 11 11 12 12 12 12 11 10 8 7 7 8 7 6 7 7 8 8 7 9 10 8 7 4 5 5 5 5 5 6 8 9 12 11 12 12 11 11 11 10 10 9 10 11 11 10 10 11 11 11 10 10 9 9 9 10 9 9 10 10 10 11 11 11 11 11 10 10 8 8
6 6 6 5 6 6 6 8 9 9 10 11 10 10 11 10 11 11 13 12 11 10 9 9 8 8 9 8 7 7 7 7 7 2 3 4 8 7 6 8 7 8 9 9 10 10 9 7 12 12 12 11 11 11 10 10 11 11 11 10 11 10 10 10 10 10 10 9 9 9 10 10 10 10 10 9 9 10 10 10 11 10 10 10 8
7 7 7 6 6 7 7 8 8 9 9 10 10 10 10 11 11 11 11 12 12 10 9 9 9 10 10 9 9 8 7 6 7 8 10 12 8 6 6 9 9 9 9 8 9 10 10 8 10 13 12 12 12 12 11 11 11 10 11 11 11 11 11 11 11 10 10 10 10 10 10 10 10 11 10 10 10 11 10 10 11 10 9 9 8
7 7 7 7 6 6 6 7 8 8 9 9 9 10 10 10 10 10 11 12 11 9 8 8 8 9 9 9 9 7 7 8 8 7 9 7 7 8 9 8 9 9 8 8 9 10 10 10 12 13 14 13 12 12 12 12 12 11 11 11 11 11 11 11 12 12 11 11 11 10 10 10 10 10 10 10 10 11 10 11 11 10 9 8 9
7 7 7 6 6 7 6 7 7 7 8 8 9 9 9 9 10 10 10 9 9 9 8 8 8 8 8 10 9 8 7 5 5 5 6 5 7 10 11 10 9 8 7 8 8 10 10 11 11 12 14 12 13 13 12 12 12 11 11 11 11 12 12 11 12 12 12 11 11 11 10 10 10 9 10 10 10 10 10 11 11 10 9 10 10
7 7 8 7 7 6 6 6 6 6 7 7 7 8 8 9 9 9 9 9 8 8 9 9 9 10 10 9 9 9 8 6 6 7 7 7 6 7 7 7 7 8 9 10 11 11 11 10 11 12 11 12 11 12 12 12 12 12 12 12 11 12 12 12 12 12 11 11 10 10 9 9 10 10 10 10 10 10 9 10 9 11 10 10 9
9 8 7 7 7 6 7 7 6 7 7 7 7 7 7 7 8 9 8 9 8 9 11 10 10 9 9 7 6 7 8 8 7 8 7 7 7 6 6 6 7 7 8 9 10 11 11 12 11 10 8 8 9 13 12 11 12 13 12 12 12 12 12 12 12 11 11 10 10 10 11 11 11 12 12 10 9 7 7 9 9 9 9 9 9
10 9 8 7 7 7 7 7 7 8 8 8 7 7 7 7 7 7 8 8 9 9 10 10 9 9 8 7 8 7 8 8 5 7 8 7 7 7 7 7 7 7 7 6 8 9 10 11 11 10 10 8 7 7 10 11 11 11 12 11 11 11 11 11 11 11 11 11 11 11 11 14 12 11 11 12 13 14 13 12 10 9 9 8 9
9 9 8 8 7 7 7 7 7 7 8 7 6 7 6 6 6 7 7 7 8 8 9 10 9 9 8 7 7 6 6 8 7 7 6 6 6 6 7 7 7 7 7 7 7 8 9 8 9 10 9 9 9 7 4 6 8 8 10 11 10 10 10 10 10 11 11 10 11 12 12 11 11 12 12 14 14 14 15 16 17 17 15 11 10
9 9 8 8 7 7 7 7 7 7 7 7 7 6 6 6 6 6 5 6 6 7 7 8 7 6 6 6 7 7 6 6 5 5 5 5 5 7 6 6 6 6 7 7 8 8 7 7 8 9 9 9 9 2 5 6 5 5 6 9 11 11 10 9 10 10 10 9 11 12 8 7 9 10 9 8 11 15 17 17 17 17 17 18 17
10 9 9 8 7 7 7 7 7 7 7 7 7 6 6 6 6 6 6 6 5 5 6 6 7 6 5 5 5 5 4 1 1 4 6 5 6 6 6 6 7 7 7 8 8 8 8 8 9 9 10 11 11 10 5 3 3 3 3 6 8 9 9 9 9 9 8 7 8 5 7 6 5 11 10 9 11 10 12 16 18 18 18 18 17
9 9 8 8 7 7 7 7 7 8 8 7 6 6 6 7 6 7 7 6 5 5 4 5 5 5 5 4 2 1 2 5 5 5 5 8 6 6 6 6 6 6 7 8 8 8 8 8 8 9 9 9 10 10 11 10 9 8 7 6 7 8 8 9 9 9 9 9 10 10 8 7 8 9 9 8 8 8 10 12 12 11 11 14 17
10 9 9 8 8 8 8 8 8 8 8 7 7 6 7 7 7 7 7 6 5 4 4 4 3 3 2 4 6 6 5 4 5 5 5 5 6 5 5 5 5 6 7 7 6 7 7 8 9 9 8 8 8 10 11 11 11 10 9 7 8 8 8 9 9 9 10 11 11 11 10 9 9 10 10 9 10 9 9 9 11 13 13 13 12
9 10 9 9 9 8 8 8 8 8 7 7 7 7 6 6 5 6 5 4 4 4 3 3 3 3 2 3 5 7 7 6 6 6 6 6 5 5 5 5 5 5 5 5 6 7 7 8 8 7 7 7 5 4 9 9 8 9 7 6 8 8 8 9 10 10 10 8 7 7 10 9 10 8 11 10 5 6 10 12 14 15 14 13 13
11 11 11 10 10 9 9 9 8 7 7 7 7 7 7 7 6 5 5 5 4 4 3 3 5 5 4 4 4 6 7 7 7 7 6 6 6 6 6 5 6 6 6 6 6 6 6 7 7 7 6 6 5 5 6 5 5 5 4 7 9 9 9 9 9 10 9 9 9 8 8 9 7 8 6 8 6 5 11 13 13 14 13 13 13
12 12 11 11 10 10 9 9 9 9 8 8 8 7 7 7 6 6 5 5 5 6 5 4 5 6 6 5 4 4 5 6 6 6 6 6 5 5 5 5 5 5 5 5 4 4 5 6 6 7 6 5 6 5 7 6 6 6 7 8 7 6 8 8 9 8 8 8 9 9 8 9 10 5 9 6 7 6 9 12 13 14 15 15 14
12 13 12 12 10 10 11 10 10 10 9 8 9 9 8 7 6 6 6 6 5 5 5 5 5 5 4 4 3 4 4 5 6 5 5 4 4 3 3 3 3 3 3 3 4 4 4 4 4 5 3 6 6 4 9 8 7 8 5 6 5 7 8 8 8 8 8 7 7 8 4 6 5 6 7 6 6 6 8 9 12 13 14 15 13
13 12 12 12 11 11 10 10 10 10 9 8 8 8 7 7 7 6 6 5 5 5 4 3 3 3 3 3 3 4 4 4 4 4 3 3 3 4 4 4 3 3 3 3 4 4 5 4 4 5 5 5 5 4 5 7 6 6 6 5 6 7 8 7 7 7 8 8 7 5 5 7 6 6 7 8 8 6 5 8 8 9 11 13 9
14 14 14 12 10 10 10 10 9 9 8 7 7 7 7 6 6 6 6 7 7 6 5 5 5 6 6 6 5 5 4 4 4 5 4 4 4 4 4 4 4 3 3 3 3 2 2 1 2 3 3 3 3 3 6 8 6 5 4 5 6 7 7 7 7 7 8 8 7 5 3 8 4 6 7 8 9 8 8 7 8 8 8 8 9
14 14 12 11 10 11 11 11 9 9 8 7 7 7 7 7 6 6 8 8 8 8 8 8 8 7 7 7 6 5 5 4 4 4 4 3 2 2 3 2 2 2 3 3 4 3 3 2 2 1 2 3 2 0 1 5 3 2 1 4 5 5 6 6 6 7 7 7 6 4 4 6 7 8 10 10 12 12 11 7 8 8 10 10 9
14 13 12 12 11 11 11 10 9 9 8 7 7 8 7 6 6 9 9 9 9 9 10 9 9 8 8 7 6 6 5 4 3 3 4 5 3 3 3 3 3 4 4 4 4 3 3 3 3 2 2 1 2 3 3 2 7 5 5 4 2 6 5 4 6 7 7 8 7 5 5 8 6 6 7 9 11 12 11 7 7 8 9 10 9
13 14 13 13 11 11 10 9 8 7 6 6 7 7 7 7 9 7 8 8 8 8 8 9 8 8 7 7 6 5 5 5 5 4 4 4 5 4 4 4 4 4 4 4 3 3 2 2 2 2 0 1 1 1 8 7 4 6 6 6 7 7 7 5 6 7 8 8 8 6 6 11 10 9 9 10 11 10 8 10 10 10 10 10 7
13 14 13 12 12 13 11 10 8 8 6 5 5 7 8 8 7 6 7 8 7 7 7 7 7 7 6 6 5 5 5 5 6 6 5 6 6 5 4 4 4 3 3 2 2 2 1 0 2 1 1 0 1 1 3 5 5 5 3 3 4 4 5 4 5 8 8 5 6 8 9 8 8 10 11 12 12 12 10 8 9 10 12 7 7
14 13 12 12 12 13 12 11 9 8 7 6 7 8 9 8 6 6 6 7 7 7 6 6 6 5 6 7 7 6 5 4 4 4 4 3 4 5 4 3 3 3 2 2 2 1 1 1 1 2 2 2 1 1 3 3 3 4 4 6 4 5 6 6 7 8 10 10 10 8 8 10 11 10 8 6 6 5 6 11 12 10 6 6 6
14 13 13 12 12 12 12 12 11 9 8 7 7 8 8 7 6 6 7 7 7 7 6 5 5 6 5 3 3 3 4 5 3 3 4 3 2 2 2 2 2 2 2 2 2 2 3 2 0 1 2 1 1 2 2 3 2 2 3 4 6 5 9 9 8 6 6 6 7 7 5 6 9 10 9 8 9 8 7 6 4 4 4 5 5
13 13 12 11 10 11 12 11 10 8 7 8 7 8 7 6 7 8 7 6 6 4 5 5 5 5 4 4 5 4 3 2 3 3 3 2 0 1 1 1 1 2 2 1 1 2 3 4 3 2 2 4 3 3 2 2 1 2 2 3 3 3 4 4 6 5 5 6 6 6 7 8 6 7 6 5 4 4 5 5 5 4 5 5 5
14 12 11 10 10 11 12 12 10 8 8 8 8 8 8 8 7 7 6 6 6 6 4 5 4 4 5 2 2 2 3 3 2 4 3 3 4 5 5 3 5 5 5 5 4 3 1 1 2 3 4 5 5 2 4 6 4 4 3 4 4 4 4 3 4 6 6 6 6 6 6 5 5 5 5 5 4 4 5 5 5 4 5 3 4
13 12 12 12 12 12 12 11 9 8 9 9 9 8 7 8 7 6 5 6 5 4 5 4 4 3 4 2 2 2 4 1 2 2 4 6 3 2 3 4 3 5 5 6 5 3 5 5 5 3 4 5 4 3 4 6 3 2 2 4 6 7 7 6 7 9 7 6 6 5 5 5 4 5 5 4 4 4 4 4 5 3 5 2 4
13 14 14 13 13 13 13 11 10 9 9 9 8 8 7 7 6 5 5 5 4 4 3 3 2 3 5 4 3 3 2 2 2 2 3 3 2 5 3 2 4 4 3 2 2 2 2 4 4 3 5 8 8 7 6 4 1 1 4 5 6 6 7 7 7 6 7 7 6 5 4 4 4 5 4 4 4 4 4 4 4 5 5 4 4
Wind_Direction
181 182 184 186 185 182 185 181 185 183 181 179 181 182 183 179 179 176 182 183 179 183 185 193 192 189 197 196 191 188 198 194 200 196 196 194 173 182 173 183 181 187 187 200 195 195 209 196 182 189 187 183 184 189 198 163 110 267 125 238 243 201 267 228 196 311 314 181 224 132 126 96 111 8 34 50 74 96 109 102 86 132 119 101 92
182 183 185 187 189 186 184 187 188 188 183 185 187 186 183 185 182 179 182 183 185 187 184 195 194 194 194 198 195 188 184 195 199 199 199 183 173 184 182 194 181 192 195 200 204 199 190 187 184 174 189 177 178 178 146 136 185 236 234 215 223 232 271 276 15 295 229 266 317 290 171 174 36 267 248 102 119 114 125 118 144 146 107 120 107
187 187 187 189 190 189 188 191 192 196 187 189 187 189 184 189 185 183 183 183 186 187 187 191 192 198 202 194 205 193 190 195 201 198 199 196 180 187 192 186 193 199 201 201 200 201 192 195 187 169 192 160 175 182 177 195 203 209 209 250 293 207 237 254 253 278 304 16 331 274 255 277 164 203 155 69 2 54 131 126 161 119 103 82 100
193 191 189 191 190 192 192 193 195 196 193 191 189 190 187 189 185 186 184 185 185 186 190 191 191 189 206 211 203 221 189 189 205 198 199 206 196 190 190 189 198 204 198 199 201 193 189 197 203 170 179 187 191 200 202 212 193 224 235 212 220 272 249 220 179 219 286 320 274 318 322 304 303 158 288 112 328 20 297 173 160 133 148 145 175
195 194 192 190 191 192 194 195 193 196 196 194 194 190 192 187 185 185 186 187 186 182 186 188 182 189 196 203 212 215 212 193 193 201 205 204 211 196 195 194 191 215 196 200 207 179 188 209 208 191 192 195 204 202 219 225 215 226 222 287 243 265 268 272 248 258 236 331 303 286 273 266 356 335 331 44 329 256 146 243 87 277 160 144 202
198 197 196 194 192 193 194 195 196 197 199 197 196 192 193 186 182 183 186 189 188 180 181 183 182 189 191 193 194 196 199 198 199 200 196 196 207 197 196 193 195 203 201 201 198 184 185 198 200 214 202 201 222 232 222 225 237 247 218 223 234 226 257 272 269 195 268 142 269 265 285 299 309 334 314 336 229 318 301 244 145 221 149 187 181
200 203 199 198 193 195 194 195 200 201 199 197 193 191 191 188 183 183 183 185 187 179 180 182 183 192 196 199 199 198 200 204 208 207 204 197 205 201 195 192 200 206 200 201 193 189 193 196 200 219 220 216 213 228 234 239 231 221 239 218 241 263 267 272 265 269 211 251 246 250 282 287 303 298 325 305 301 181 292 312 168 172 217 165 188
199 202 204 203 194 198 197 196 200 202 198 194 192 191 187 189 183 183 181 182 184 177 186 183 185 191 198 206 204 206 204 202 200 210 210 204 203 206 194 195 196 210 214 198 201 190 199 202 205 220 221 229 220 222 231 236 241 243 228 261 278 266 246 253 262 267 260 230 255 296 270 257 265 280 260 315 311 301 305 204 216 178 213 190 173
201 198 202 203 201 199 200 200 199 200 197 194 193 191 187 186 184 180 180 179 179 176 181 187 188 190 198 205 209 208 213 203 196 202 210 199 207 204 207 202 194 202 215 209 202 208 200 213 210 218 219 227 229 231 231 232 237 239 229 234 228 232 234 240 255 262 271 271 251 236 274 287 289 289 286 258 285 313 306 303 294 151 254 184 181
203 200 198 199 202 203 203 203 200 198 197 195 194 189 184 182 180 180 179 179 176 175 179 181 187 192 200 209 205 203 205 208 198 195 202 198 205 204 206 215 205 200 206 216 215 212 212 211 215 215 220 222 228 237 236 236 233 230 228 234 234 235 234 239 233 248 256 273 275 244 249 276 285 288 290 287 268 232 280 301 305 298 280 169 178
203 203 199 198 200 201 203 204 201 199 197 193 191 189 185 182 179 180 179 176 173 176 180 184 190 198 203 207 206 203 203 204 199 194 196 197 207 205 202 207 221 209 209 207 222 222 222 220 223 219 220 216 222 236 236 233 220 218 225 220 232 239 235 238 246 254 258 264 265 264 260 259 254 267 275 297 303 295 299 293 290 299 304 299 190
198 201 201 196 198 203 203 204 200 199 195 192 191 188 187 181 178 178 175 175 174 178 183 189 193 200 207 207 208 206 205 205 205 205 200 200 205 210 209 206 213 220 217 216 210 220 220 218 221 225 215 220 215 225 234 229 235 225 223 208 206 214 231 241 249 243 249 238 253 260 254 264 270 267 274 263 238 271 292 299 300 296 277 297 136
195 197 200 197 196 199 201 200 198 192 194 192 193 189 185 180 175 176 175 175 178 181 184 189 193 198 204 208 210 209 210 213 214 215 210 208 210 211 209 212 209 220 221 222 216 222 220 213 217 216 211 213 221 221 229 243 252 248 222 214 223 209 217 227 227 237 243 259 261 259 265 269 274 279 276 273 288 291 270 278 282 300 296 291 228
193 194 198 196 193 194 196 195 191 190 193 192 193 188 180 180 176 178 176 177 178 180 182 187 193 196 198 206 211 207 210 216 220 221 213 212 213 221 215 210 212 217 221 224 235 222 220 211 211 212 211 206 209 217 227 226 231 243 230 225 230 217 231 225 239 247 247 253 257 266 268 272 273 274 274 273 275 272 268 278 292 283 284 285 275
191 190 195 195 191 190 190 189 189 192 195 192 190 184 175 180 176 178 176 177 177 175 175 182 188 193 192 198 204 206 208 212 222 229 228 216 218 215 222 225 224 215 221 223 224 237 227 216 205 209 205 209 209 212 215 215 214 227 242 229 241 221 224 238 234 240 244 242 252 261 271 268 274 273 272 277 274 278 283 285 288 289 283 283 278
189 186 191 194 190 188 186 185 189 192 191 188 188 179 179 179 177 179 177 175 178 177 179 181 187 188 190 191 192 199 208 217 215 218 225 232 222 233 222 227 243 243 227 224 218 224 226 221 206 213 213 210 214 217 221 217 203 217 224 226 231 240 220 224 239 250 251 251 253 259 263 269 272 272 272 276 276 277 280 285 282 278 282 282 282
186 184 187 189 188 189 187 185 190 188 183 185 184 182 180 180 180 179 177 173 177 181 183 186 187 186 189 191 193 192 199 213 217 209 219 217 226 227 234 230 225 239 244 221 228 218 221 220 222 217 208 218 220 220 221 220 211 212 217 219 232 234 232 226 240 245 258 261 251 243 247 254 258 264 269 267 269 282 286 285 278 277 279 279 277
182 184 180 185 186 188 189 190 190 187 182 187 188 188 181 180 174 172 172 175 177 184 192 190 191 196 195 199 199 202 204 213 221 226 212 213 208 219 229 227 232 233 232 242 230 220 212 221 229 228 226 216 219 220 218 219 219 222 222 223 224 236 239 231 232 245 248 249 255 259 256 253 247 250 249 253 258 255 256 261 262 258 249 258 271
179 184 176 182 185 188 191 193 193 187 186 190 191 186 171 172 176 173 157 156 177 187 195 195 190 195 206 215 215 209 212 216 223 227 233 219 215 210 215 226 230 225 227 227 243 238 214 213 222 227 222 227 219 225 223 221 220 225 225 231 227 226 236 239 237 238 245 255 259 258 257 262 267 269 269 267 263 250 245 253 270 265 258 262 261
174 180 178 181 185 189 190 191 191 185 187 191 187 178 173 176 177 164 156 172 175 181 185 190 187 185 190 198 207 222 215 218 218 224 225 223 215 219 224 226 222 219 225 216 229 236 240 225 214 221 228 220 219 219 222 220 221 226 228 231 233 233 226 233 242 244 242 240 245 251 256 262 265 261 260 259 260 256 258 262 255 251 247 246 253
170 173 173 183 186 192 191 189 188 183 185 185 180 181 180 179 181 172 173 177 176 178 181 183 182 188 187 193 197 199 212 210 216 215 230 231 222 217 234 256 52 327 6 297 249 233 230 243 238 229 226 225 223 227 223 224 219 223 227 236 239 233 226 232 235 244 249 248 247 256 260 259 262 262 261 260 254 253 251 248 248 250 248 243 241
162 166 172 181 177 187 185 181 178 178 180 181 179 181 182 186 185 179 179 174 175 181 185 185 187 189 190 191 203 209 210 211 214 213 216 197 348 299 222 158 207 175 227 260 278 274 256 235 237 233 234 229 221 219 226 223 224 220 223 223 226 228 232 235 244 245 239 247 254 250 250 253 248 250 256 258 256 253 248 247 244 243 242 243 241
151 154 156 163 168 181 175 172 173 178 174 177 177 182 186 186 182 181 181 179 182 184 179 180 180 179 183 187 197 208 213 217 214 212 227 142 208 222 195 204 202 218 200 224 254 253 246 256 241 235 232 233 229 223 220 226 227 225 225 232 237 228 225 229 230 234 240 240 245 248 247 246 250 250 248 248 252 252 251 251 249 247 249 247 239
129 125 134 147 149 152 145 157 166 175 175 179 180 181 187 187 186 184 187 177 181 174 171 176 176 183 185 191 193 205 207 213 209 171 6 69 179 200 206 210 210 213 215 215 223 233 241 239 258 242 235 234 233 229 226 223 223 227 227 226 232 237 235 230 232 236 236 235 238 244 247 250 250 253 256 259 255 254 254 254 256 254 253 256 259
126 130 133 142 153 158 159 166 169 176 177 180 180 181 187 189 186 186 183 184 188 180 174 172 171 170 180 188 191 194 199 199 202 145 176 196 187 183 208 212 205 209 212 217 218 227 229 222 229 239 235 231 231 232 230 231 229 224 227 230 229 229 231 234 237 238 242 245 249 249 250 252 253 254 249 250 252 252 251 255 253 249 250 248 246
117 124 132 142 146 153 163 168 172 175 177 178 179 182 186 187 186 182 184 190 191 180 172 164 170 173 181 190 196 197 198 196 198 171 179 186 166 186 204 210 208 206 209 215 224 224 224 222 226 232 235 227 227 230 230 232 233 231 228 228 231 230 233 235 236 237 238 238 243 248 253 255 257 256 257 256 257 259 261 257 256 262 260 256 248
121 121 121 124 139 144 150 155 164 168 171 171 173 176 180 181 183 183 187 187 183 177 167 165 172 186 190 197 202 202 207 169 195 195 197 186 178 187 195 203 208 212 211 218 223 232 232 230 232 235 238 235 227 226 228 226 231 236 236 230 232 233 235 238 241 240 241 241 241 244 245 247 251 256 257 258 259 256 250 261 271 265 258 257 254
119 120 124 126 129 135 145 150 153 158 160 161 170 171 175 181 180 184 186 194 197 180 170 173 189 199 200 199 205 203 195 187 194 205 206 201 201 210 212 214 214 219 223 225 229 233 236 239 238 235 232 237 239 231 225 227 226 229 234 234 232 238 240 239 242 244 243 244 244 245 245 248 247 245 246 249 252 256 256 250 248 259 261 258 258
120 117 118 129 133 139 143 146 148 151 156 156 160 165 169 176 184 190 190 198 194 193 187 183 192 198 202 200 208 197 201 198 198 206 200 190 197 215 222 225 225 225 229 233 235 237 242 243 244 246 248 250 246 242 234 225 224 226 232 235 237 236 239 244 244 245 245 246 248 247 246 247 245 243 248 255 262 275 263 257 249 249 256 254 252
124 123 125 128 135 140 143 143 146 152 151 154 159 163 166 174 179 180 189 194 187 188 188 182 182 193 190 189 194 202 199 194 182 207 218 213 211 213 217 220 224 226 229 232 234 237 240 240 239 243 243 244 250 259 257 249 241 237 228 236 238 241 244 246 247 248 251 251 248 252 258 256 244 238 234 237 244 250 254 258 267 264 253 258 260
121 128 132 136 140 140 140 142 144 146 146 144 150 156 161 160 161 167 177 175 181 189 195 180 183 184 187 184 190 198 199 203 207 218 217 222 223 212 215 216 219 223 229 231 232 234 236 240 243 243 241 242 239 235 326 298 247 259 257 242 240 243 244 248 252 255 257 263 271 269 260 254 247 237 237 235 241 244 243 244 246 249 256 251 250
132 137 141 145 144 141 139 136 133 131 132 136 135 139 146 149 149 145 153 161 182 193 193 190 178 190 181 189 200 203 199 204 214 229 229 231 219 214 211 213 215 219 224 225 226 224 227 230 232 238 243 247 251 64 58 39 356 330 300 274 263 257 250 247 249 250 254 258 265 263 276 290 283 287 274 265 259 244 241 243 242 243 245 248 252
144 147 150 144 135 128 124 120 120 121 121 122 124 133 135 132 138 138 147 160 173 182 178 184 181 184 188 192 198 211 191 170 204 230 244 213 214 215 214 214 215 216 217 218 216 216 217 220 225 228 234 236 240 254 254 213 181 195 218 260 260 266 272 266 263 261 257 252 258 283 276 262 254 269 274 261 259 272 261 238 236 241 243 243 241
149 146 136 125 121 121 112 105 105 112 115 116 119 126 130 134 138 144 149 156 158 160 172 177 181 183 179 151 99 66 205 196 228 231 217 221 214 213 213 211 214 210 214 219 217 218 222 222 225 225 228 232 235 227 218 220 217 218 220 224 247 256 259 264 264 266 270 272 269 266 264 258 260 263 258 259 271 264 265 272 264 255 251 238 230
144 138 129 120 116 110 106 102 104 112 120 125 125 125 128 133 142 148 153 156 162 155 163 155 161 152 150 155 168 141 222 205 225 222 223 228 218 215 213 211 213 213 213 217 221 222 225 228 227 231 231 236 236 203 201 210 218 221 221 220 242 240 247 250 254 256 259 257 259 261 257 264 274 270 272 266 259 252 256 259 260 263 259 257 251
141 132 123 127 124 121 119 112 115 122 125 132 126 125 131 132 138 143 146 148 138 143 146 150 98 80 133 157 156 163 178 186 197 219 226 220 216 213 209 199 213 217 216 218 222 227 226 230 233 238 241 241 259 169 199 208 223 233 219 235 242 244 249 253 253 255 255 262 261 254 262 254 251 255 264 273 272 278 275 272 268 265 265 266 264
132 130 129 124 125 125 119 124 124 119 123 124 122 124 126 133 134 129 128 122 119 102 81 106 124 155 182 195 184 165 186 175 184 189 198 197 203 200 203 202 207 211 213 215 224 224 228 235 238 237 241 249 257 161 181 196 227 240 226 246 244 243 243 247 254 255 258 258 259 257 256 267 273 268 41 24 359 314 268 268 267 268 267 265 264
126 121 122 126 123 121 126 127 123 121 120 120 119 122 129 131 129 124 122 122 129 129 145 146 161 161 180 200 192 184 173 174 175 185 188 193 198 201 199 196 213 208 220 223 229 235 237 244 244 249 245 251 252 175 174 176 188 182 233 247 253 265 265 260 259 263 264 267 269 274 273 272 273 292 33 17 6 310 264 263 267 265 264 262 263
129 131 130 126 127 124 123 124 125 118 124 126 123 130 132 131 131 132 136 139 147 145 154 162 166 169 187 174 178 172 163 169 177 174 181 178 189 201 192 207 220 223 219 223 222 227 226 237 250 268 283 269 265 203 167 182 191 192 223 252 253 256 259 261 266 268 269 272 277 276 334 39 26 22 8 8 350 334 289 284 279 278 275 274 272
132 128 122 117 118 126 129 124 119 119 129 127 135 137 131 134 137 140 145 140 139 141 143 142 140 139 141 138 141 158 164 168 155 139 149 160 154 162 165 190 182 204 207 210 221 219 215 207 202 225 208 230 250 276 148 172 206 230 245 254 257 247 255 267 281 288 289 282 283 279 117 82 57 20 355 343 334 327 295 286 289 279 280 277 305
129 121 125 129 135 130 123 124 125 129 129 135 133 129 131 128 133 139 134 130 127 126 130 137 143 143 143 144 145 147 145 136 132 140 140 144 158 160 168 167 173 187 183 209 215 234 249 252 258 251 264 266 276 293 157 182 171 219 234 240 266 272 279 284 281 285 282 288 282 287 292 103 58 22 345 334 321 316 305 288 280 270 272 318 336
118 128 134 131 126 123 125 121 128 135 135 139 139 128 129 139 146 133 124 126 132 132 127 128 132 133 133 134 133 138 134 124 123 143 144 137 132 168 165 153 156 188 184 189 170 186 203 183 235 253 283 281 133 190 288 124 112 110 354 240 253 287 354 302 312 299 298 289 305 324 325 65 32 6 344 332 317 308 304 286 271 293 321 319 299
131 136 132 131 131 134 128 131 139 139 141 145 137 135 139 147 128 116 121 125 126 128 132 133 132 133 133 132 135 138 135 134 149 158 153 142 164 163 155 162 168 168 173 170 182 193 208 224 236 248 263 261 278 163 34 91 96 93 90 159 341 334 23 316 293 292 296 294 292 307 305 50 11 353 324 309 300 295 288 280 327 320 305 301 286
139 135 138 137 130 124 124 127 125 129 139 138 135 135 138 129 115 114 116 119 121 125 129 126 125 125 127 122 128 138 137 142 149 154 143 151 155 158 171 179 183 187 187 194 197 205 229 256 278 291 286 290 37 291 78 66 60 56 51 44 32 21 12 330 334 294 295 298 290 308 356 353 337 321 298 288 285 276 273 302 309 302 291 276 262
140 137 137 137 132 130 129 130 129 131 125 121 125 121 120 112 108 116 114 110 113 121 124 124 120 120 126 126 124 114 120 125 135 139 141 146 154 170 165 171 186 193 197 215 225 206 237 249 326 340 4 288 78 126 76 89 99 101 76 57 22 359 329 316 292 280 276 309 5 340 321 307 298 294 282 276 268 258 251 259 275 280 276 269 276
136 135 135 127 128 130 130 128 129 126 122 124 122 121 115 111 119 117 116 114 117 111 110 116 121 123 131 133 138 126 117 123 137 139 153 165 163 188 169 178 207 204 216 229 245 256 265 297 40 351 350 351 330 192 151 147 164 182 186 179 198 213 253 249 265 283 298 300 295 285 275 268 264 258 269 279 298 311 297 285 268 266 300 313 314
141 131 130 134 136 133 131 129 127 127 120 113 105 105 107 116 121 118 112 108 106 110 109 105 107 109 103 93 88 92 136 147 135 169 151 168 152 237 174 213 244 244 212 220 232 231 262 244 194 345 321 308 283 285 249 171 199 290 300 184 201 204 210 227 248 247 233 243 233 228 277 301 298 303 284 276 271 284 271 268 284 314 319 319 322
126 131 137 134 133 130 129 121 114 111 109 103 97 96 97 96 105 107 107 103 85 74 91 94 105 112 105 123 118 145 254 91 72 354 358 6 127 250 281 120 5 345 322 284 270 313 324 324 313 295 300 294 282 245 248 303 320 304 301 303 293 292 296 301 294 292 296 295 297 273 235 234 242 246 244 250 262 292 293 287 296 314 326 322 319
132 135 135 129 127 121 118 115 112 109 104 96 84 80 91 96 91 89 92 91 91 90 69 77 79 87 103 103 96 111 49 49 122 139 97 23 356 350 354 355 46 9 354 337 331 294 259 303 306 303 298 300 290 332 73 47 41 33 323 324 318 325 334 298 58 30 313 286 263 258 267 261 258 259 272 273 263 260 265 248 231 288 317 303 321
132 133 127 121 120 119 114 109 108 107 104 101 97 91 80 82 88 93 91 92 90 82 82 61 43 37 44 52 40 79 94 359 325 43 128 131 84 10 356 331 64 75 51 31 7 358 11 350 316 322 38 331 342 60 82 72 62 344 320 287 296 313 320 300 323 317 283 275 260 267 270 266 270 274 279 280 275 283 297 309 315 174 206 298 328
134 129 126 124 120 116 116 116 115 115 110 106 103 100 101 97 93 90 88 90 85 85 68 78 69 53 34 350 353 22 44 76 355 344 348 327 171 160 196 169 3 96 93 124 91 88 25 359 329 308 88 76 93 103 83 75 25 280 275 266 268 275 260 254 272 287 249 236 254 261 267 265 274 277 282 303 308 292 311 315 314 315 308 332 326